Weather observations for the past three days for
Pontiac, Oakland County International Airport
| Date | Time (edt) | Wind (kph) | Vis. (km) | Weather | Sky Cond. | Temperature (ºC) | Relative Humidity | Wind Chill (°C) | Heat Index (°C) | Pressure | Precipitation (cm) | ||||||
|---|---|---|---|---|---|---|---|---|---|---|---|---|---|---|---|---|---|
| Air | Dwpt | 6 hour | altimeter (cm) | sea level (mb) | 1 hr | 3 hr | 6 hr | ||||||||||
| Max. | Min. | ||||||||||||||||
| 04 | 05:53 | SW 15 | 16.09 | A Few Clouds | FEW250 | 8.3 | 3.3 | 71% | 6 | 75.36 | 0.0 | ||||||
| 03 | 23:53 | SW 20 G 33 | 16.09 | Mostly Cloudy | BKN070 BKN100 | 11 | 3 | 58% | 75.62 | 0.0 | |||||||
| 03 | 22:53 | SW 19 G 35 | 16.09 | Mostly Cloudy | BKN080 BKN110 | 11 | 3 | 58% | 75.67 | 0.0 | |||||||
| 03 | 21:53 | SW 20 G 33 | 16.09 | Partly Cloudy | SCT070 SCT100 | 12 | 3 | 54% | 75.67 | 0.0 | |||||||
| 03 | 20:53 | SW 17 G 33 | 16.09 | Partly Cloudy | SCT100 | 12 | 3 | 54% | 75.67 | 0.0 | |||||||
| 03 | 19:53 | W 30 G 43 | 16.09 | Mostly Cloudy | FEW070 BKN090 | 14.3 | 2 | 44% | 75.64 | 0.0 | |||||||
| 03 | 18:53 | W 30 G 46 | 16.09 | Overcast | BKN070 OVC090 | 15.3 | 1 | 38% | 75.67 | 0.0 | |||||||
| 03 | 17:53 | SW 30 G 52 | 16.09 | Overcast | BKN075 OVC090 | 16.2 | 0 | 33% | 75.67 | 0.0 | |||||||
| 03 | 16:53 | SW 22 G 46 | 16.09 | Mostly Cloudy | BKN075 BKN100 BKN200 | 16.8 | 0 | 32% | 75.67 | 0.0 | |||||||
| 03 | 15:53 | W 35 G 52 | 16.09 | Mostly Cloudy and Breezy | SCT070 BKN100 BKN200 | 16.3 | -1 | 31% | 75.69 | 0.0 | |||||||
| 03 | 14:53 | W 37 G 54 | 16.09 | Partly Cloudy and Breezy | FEW060 SCT100 SCT200 | 17 | -1 | 30% | 75.74 | 0.0 | |||||||
| 03 | 13:53 | W 37 G 52 | 16.09 | Mostly Cloudy and Breezy | FEW037 BKN085 | 16 | -1 | 31% | 75.82 | 0.0 | |||||||
| 03 | 12:53 | W 28 G 48 | 16.09 | Overcast | FEW065 BKN070 OVC080 | 14 | -1 | 36% | 75.9 | 0.0 | |||||||
| 03 | 11:53 | W 24 G 41 | 16.09 | Overcast | BKN080 OVC110 | 13 | -2 | 36% | 75.95 | 0.0 | |||||||
| 03 | 10:53 | W 24 G 48 | 16.09 | Mostly Cloudy | BKN080 BKN110 BKN250 | 14 | -2 | 33% | 75.95 | 0.0 | |||||||
| 03 | 09:53 | W 30 G 39 | 16.09 | Mostly Cloudy | FEW120 BKN250 | 12 | -2 | 38% | 75.97 | 0.0 | |||||||
| 03 | 08:53 | W 17 | 16.09 | Partly Cloudy | FEW120 SCT250 | 8 | -3 | 46% | 6 | 75.97 | 0.0 | ||||||
| 03 | 07:53 | W 17 | 16.09 | Partly Cloudy | SCT120 SCT250 | 6 | -4 | 49% | 3 | 76 | 0.0 | ||||||
| 03 | 06:53 | SW 13 | 16.09 | A Few Clouds | FEW100 FEW250 | 4 | -4 | 56% | 1 | 75.97 | 0.0 | ||||||
| 03 | 05:53 | SW 9 | 16.09 | A Few Clouds | FEW100 | 3 | -4 | 60% | 1 | 76.02 | 0.0 | ||||||
| 02 | 23:53 | SW 9 | 16.09 | Fair | CLR | 5 | -3 | 57% | 3 | 76.15 | 0.0 | ||||||
| 02 | 22:53 | SW 7 | 16.09 | Fair | CLR | 5 | -4 | 53% | 4 | 76.17 | 0.0 | ||||||
| 02 | 21:53 | SW 6 | 16.09 | A Few Clouds | FEW080 | 6 | -4 | 49% | 76.17 | 0.0 | |||||||
| 02 | 20:53 | Calm | 16.09 | A Few Clouds | FEW070 | 7 | -5 | 43% | 76.17 | 0.0 | |||||||
| 02 | 19:53 | W 11 | 16.09 | Partly Cloudy | FEW065 SCT080 | 7 | -5 | 43% | 5 | 76.17 | 0.0 | ||||||
| 02 | 18:53 | NW 15 | 16.09 | Mostly Cloudy | SCT065 BKN075 | 8 | -5.7 | 38% | 6 | 76.17 | 0.0 | ||||||
| 02 | 17:53 | NW 20 G 35 | 16.09 | Mostly Cloudy | FEW050 SCT065 BKN075 | 8 | -5 | 40% | 5 | 76.2 | 0.0 | ||||||
| 02 | 16:53 | NW 19 | 16.09 | Mostly Cloudy | FEW050 BKN070 | 8 | -6 | 37% | 5 | 76.2 | 0.0 | ||||||
| 02 | 15:53 | W 26 G 37 | 16.09 | Mostly Cloudy | FEW055 BKN070 | 8 | -6 | 37% | 5 | 76.25 | 0.0 | ||||||
| 02 | 14:53 | W 20 | 16.09 | Mostly Cloudy | BKN060 | 8 | -5 | 40% | 5 | 76.28 | 0.0 | ||||||
| 02 | 13:53 | NW 22 G 33 | 16.09 | Mostly Cloudy | BKN055 | 7 | -6 | 39% | 4 | 76.3 | 0.0 | ||||||
| 02 | 12:53 | N 13 | 16.09 | Mostly Cloudy | BKN050 | 6 | -7 | 39% | 4 | 76.33 | 0.0 | ||||||
| 02 | 11:53 | NW 19 | 16.09 | Mostly Cloudy | BKN048 | 6 | -6 | 42% | 3 | 76.35 | 0.0 | ||||||
| 02 | 10:53 | N 19 G 31 | 16.09 | Mostly Cloudy | BKN043 | 6 | -6 | 42% | 3 | 76.33 | 0.0 | ||||||
| 02 | 09:53 | NW 11 | 16.09 | Mostly Cloudy | BKN033 | 4 | -4 | 56% | 2 | 76.35 | 0.0 | ||||||
| 02 | 08:53 | N 17 | 16.09 | A Few Clouds | FEW015 | 4 | -2 | 65% | 1 | 76.33 | 0.0 | ||||||
| 02 | 07:53 | N 13 | 16.09 | A Few Clouds | FEW012 FEW080 | 2 | -1 | 81% | -1 | 76.3 | 0.0 | ||||||
| 02 | 06:53 | Calm | 16.09 | Partly Cloudy | FEW012 SCT080 | 2 | -1 | 81% | 76.28 | 0.0 | |||||||
| 02 | 05:53 | Calm | 16.09 | Mostly Cloudy | FEW012 BKN080 | 2 | -2 | 75% | 76.28 | 0.0 | |||||||
| 01 | 23:53 | SE 11 | 16.09 | Overcast | SCT039 OVC055 | 4 | -2 | 65% | 2 | 76.23 | 0.0 | ||||||
| 01 | 22:53 | E 17 | 16.09 | Overcast | SCT037 OVC047 | 4 | -2 | 65% | 1 | 76.23 | 0.0 | ||||||
| 01 | 21:53 | NW 11 | 16.09 | Overcast | BKN047 OVC075 | 6 | -3 | 53% | 4 | 76.17 | 0.0 | ||||||
| 01 | 20:53 | W 9 | 16.09 | Overcast | SCT044 OVC080 | 6 | -3 | 53% | 4 | 76.15 | 0.0 | ||||||
| 01 | 19:53 | N 17 | 16.09 | Overcast | SCT044 OVC070 | 7 | -2 | 53% | 4 | 76.12 | 0.0 | ||||||
| 01 | 18:53 | NW 17 | 16.09 | Overcast | BKN042 OVC060 | 7 | -2 | 53% | 4 | 76.12 | 0.0 | ||||||
| 01 | 17:53 | NW 19 | 16.09 | Overcast | BKN048 OVC070 | 8 | -2 | 50% | 5 | 76.1 | 0.0 | ||||||
| 01 | 16:53 | NW 15 G 28 | 16.09 | Overcast | BKN046 OVC065 | 8 | -3 | 46% | 6 | 76.05 | 0.0 | ||||||
| 01 | 15:53 | N 15 | 16.09 | Overcast | SCT044 OVC075 | 8 | -2 | 50% | 6 | 76.05 | 0.0 | ||||||
| 01 | 14:53 | N 20 G 30 | 16.09 | Overcast | SCT050 OVC075 | 8 | -2 | 50% | 5 | 76.02 | 0.0 | ||||||
| 01 | 13:53 | N 20 | 16.09 | Overcast | SCT050 OVC070 | 8 | -2 | 50% | 5 | 76.02 | 0.0 | ||||||
| 01 | 12:53 | N 15 | 16.09 | Mostly Cloudy | SCT048 BKN070 BKN080 | 8 | -3 | 46% | 6 | 76 | 0.0 | ||||||
| 01 | 11:53 | N 9 | 16.09 | Mostly Cloudy | SCT033 BKN043 BKN055 | 7 | -2 | 53% | 5 | 76 | 0.0 | ||||||
| 01 | 10:53 | E 11 | 16.09 | Mostly Cloudy | BKN025 BKN033 BKN110 | 7 | 1 | 66% | 5 | 76.02 | 0.0 | ||||||
| 01 | 09:53 | E 11 | 16.09 | Mostly Cloudy | FEW020 BKN029 BKN100 | 5 | 0 | 70% | 3 | 76.02 | 0.0 | ||||||
| 01 | 08:53 | NE 13 | 16.09 | Mostly Cloudy | BKN020 BKN025 BKN033 | 4 | 1 | 81% | 1 | 76.02 | 0.0 | ||||||
| 01 | 07:53 | NE 6 | 16.09 | Overcast | BKN039 BKN085 OVC110 | 5 | 2 | 81% | 76 | 0.0 | |||||||
| 01 | 06:53 | Vrbl 9 | 14.48 | Mostly Cloudy | SCT040 BKN080 BKN110 | 5 | 1 | 76% | 3 | 75.95 | 0.0 | ||||||
| Date | Time (edt) | Wind (kph) | Vis. (km) | Weather | Sky Cond. | Air | Dwpt | Max. | Min. | Relative Humidity | Wind Chill (°C) | Heat Index (°C) | altimeter (cm) | sea level (mb) | 1 hr | 3 hr | 6 hr |
| 6 hour | |||||||||||||||||
| Temperature (ºC) | Pressure | Precipitation (cm) | |||||||||||||||